Regional Weather Roundup
Issued by NWS Midland/Odessa, TX

Home | Current Version | Previous Version | Text Only | Print | Product List | Glossary On
Versions: 1 2 3 4 5 6 7 8 9 10 11 12 13 14 15 16 17 18 19 20 21 22 23 24 25 26 27 28 29 30 31 32 33 34 35 36 37 38 39 40 41 42 43 44 45 46 47 48 49 50
000
ASUS44 KMAF 270810
RWRMAF
MIDLAND AREA WEATHER ROUNDUP
NATIONAL WEATHER SERVICE MIDLAND TX
300 AM CDT MON APR 27 2015

...IN SOUTHWEST TEXAS AND SOUTHEAST NEW MEXICO...

CITY           SKY/WX    TMP DP  RH WIND       PRES   REMARKS
ALPINE         MOCLDY    52  29  42 W5        29.91F
ANDREWS        FAIR      51  38  61 W7        29.77F
ARTESIA        CLEAR     48  37  66 NW8       29.79S
BIG SPRING     CLOUDY    61  50  67 E3        29.76F
CARLSBAD       CLEAR     50  34  54 NW7       29.77S
DRYDEN           N/A     66  31  27 NW9       29.76R
FORT STOCKTON  MOCLDY    58  33  39 W9        29.80S
GUAD PASS      CLEAR     45  33  63 W15G26    29.84R WCI  38
HOBBS          PTCLDY    46  41  81 N7        29.78F
MARFA          PTCLDY    52  30  43 W14       29.88S
MIDLAND AIRPK  MOCLDY    59  37  44 W5        29.76F
MIDLAND INTL   MOCLDY    54  39  57 W7        29.76F
ODESSA         MOCLDY    55  33  43 NW3       29.78S
PECOS          MOCLDY    56  33  41 W12       29.77F
PRESIDIO       FAIR      60  31  33 NW6       29.82S
SEMINOLE       PTCLDY    49  37  64 NW3       29.78S
SNYDER         MOCLDY    54  52  94 N12       29.73F
WINK           PTCLDY    48  30  49 NW7       29.76S
$$
...OTHER STATIONS IN TEXAS...

CITY           SKY/WX    TMP DP  RH WIND       PRES   REMARKS
ABILENE        CLOUDY    59  54  83 N15G24    29.69F
AMARILLO       LGT RAIN  49  48  97 N18       29.83F
AUSTIN         TSTM      65  64  97 NE22      29.51F
BROWNSVILLE    CLOUDY    79  77  94 S8        29.50F FOG
CORPUS CHRISTI CLOUDY    78  76  93 S13G21    29.48F FOG
DALLAS FTW     CLOUDY    71  61  70 SE13      29.64F
DEL RIO        CLEAR     70  40  33 NW13      29.66S
EL PASO        PTCLDY    55  36  48 W15G25    29.83F
HOUSTON INT    LGT RAIN  74  72  93 E12       29.58F FOG
LUBBOCK        CLOUDY    51  49  92 NE14      29.77F
SAN ANGELO     PTCLDY    62  53  72 W9        29.70S
SAN ANTONIO    LGT RAIN  65  61  87 CALM      29.66S
WACO           LGT RAIN  63  61  93 E13       29.65F
WICHITA FALLS  NOT AVBL
$$
...OTHER LOCATIONS IN NEW MEXICO...

CITY           SKY/WX    TMP DP  RH WIND       PRES   REMARKS
ALAMAGORDO     CLOUDY    46  37  71 S3        29.85S
ALBUQUERQUE    CLOUDY    45  37  73 E15       29.90F WCI  38
CANNON AFB     MOCLDY    47  43  85 E12       29.82F
CLOVIS         CLOUDY    46  43  87 NE10      29.83S
HOLLOMAN AFB   CLOUDY    47  40  76 W2        29.83S
ROSWELL        PTCLDY    52  40  63 NW9       29.78R
RUIDOSO        CLOUDY    37  36  93 NW12      29.88F WCI  30
SANTA FE       CLOUDY    40  37  89 N12       29.92S WCI  33
TRUTH OR CONSE LGT RAIN  49  38  65 NW13G22   29.86R
TUCUMCARI      LGT RAIN  48  46  93 NE13      29.87S
$$



USA.gov is the U.S. government's official web portal to all federal, state and local government web resources and services.